Time,TemperatureF,DewpointF,PressureIn,WindDirection,WindDirectionDegrees,WindSpeedMPH,WindSpeedGustMPH,Humidity,HourlyPrecipIn,Conditions,Clouds,dailyrainin,SoftwareType,DateUTC
2013-02-21 00:05:00,35.6,7.2,0.00,NE,36,0.0,0.0,30,0.00,,---,0.00,VWS V13.01,2013-02-21 05:05:00,
2013-02-21 00:06:00,35.6,7.2,0.00,NE,34,0.0,0.0,30,0.00,,---,0.00,VWS V13.01,2013-02-21 05:06:00,
2013-02-21 00:11:00,35.4,7.1,0.00,NNE,33,0.0,0.0,30,0.00,,---,0.00,VWS V13.01,2013-02-21 05:11:00,
2013-02-21 00:16:00,35.2,6.9,0.00,North,8,0.0,0.0,30,0.00,,---,0.00,VWS V13.01,2013-02-21 05:16:00,
2013-02-21 00:21:00,35.1,6.8,0.00,NNE,20,0.0,0.0,30,0.00,,---,0.00,VWS V13.01,2013-02-21 05:21:00,
2013-02-21 00:26:00,34.9,6.6,0.00,NNE,20,0.0,0.0,30,0.00,,---,0.00,VWS V13.01,2013-02-21 05:26:00,
2013-02-21 00:31:00,34.5,7.0,0.00,NNE,20,0.0,0.0,31,0.00,,---,0.00,VWS V13.01,2013-02-21 05:31:00,
2013-02-21 00:36:00,34.3,6.9,0.00,NE,35,0.0,0.0,31,0.00,,---,0.00,VWS V13.01,2013-02-21 05:36:00,
2013-02-21 00:41:00,34.3,6.9,0.00,NE,35,0.0,0.0,31,0.00,,---,0.00,VWS V13.01,2013-02-21 05:41:00,
2013-02-21 00:46:00,34.0,6.5,0.00,NE,35,0.0,0.0,31,0.00,,---,0.00,VWS V13.01,2013-02-21 05:46:00,
2013-02-21 00:51:00,33.6,6.9,0.00,NE,35,0.0,0.0,32,0.00,,---,0.00,VWS V13.01,2013-02-21 05:51:00,
2013-02-21 00:56:00,33.3,6.6,0.00,NE,35,0.0,0.0,32,0.00,,---,0.00,VWS V13.01,2013-02-21 05:56:00,
2013-02-21 01:01:00,32.9,7.0,0.00,NE,35,0.0,0.0,33,0.00,,---,0.00,VWS V13.01,2013-02-21 06:01:00,
2013-02-21 01:06:00,32.5,7.3,0.00,NE,35,0.0,0.0,34,0.00,,---,0.00,VWS V13.01,2013-02-21 06:06:00,
2013-02-21 01:11:00,32.2,7.0,0.00,NNE,30,0.0,0.0,34,0.00,,---,0.00,VWS V13.01,2013-02-21 06:11:00,
2013-02-21 01:16:00,32.2,7.0,0.00,NNE,20,0.0,0.0,34,0.00,,---,0.00,VWS V13.01,2013-02-21 06:16:00,
2013-02-21 01:21:00,32.2,7.6,0.00,NNE,20,0.0,0.0,35,0.00,,---,0.00,VWS V13.01,2013-02-21 06:21:00,
2013-02-21 01:26:00,31.8,9.1,0.00,NNE,20,0.0,0.0,38,0.00,,---,0.00,VWS V13.01,2013-02-21 06:26:00,
2013-02-21 01:31:00,31.3,9.8,0.00,NNE,20,0.0,0.0,40,0.00,,---,0.00,VWS V13.01,2013-02-21 06:31:00,
2013-02-21 01:36:00,31.1,9.6,0.00,NNE,20,0.0,0.0,40,0.00,,---,0.00,VWS V13.01,2013-02-21 06:36:00,
2013-02-21 01:41:00,31.1,9.6,0.00,NNE,20,0.0,0.0,40,0.00,,---,0.00,VWS V13.01,2013-02-21 06:41:00,
2013-02-21 01:46:00,30.9,9.4,0.00,NNE,20,0.0,0.0,40,0.00,,---,0.00,VWS V13.01,2013-02-21 06:46:00,
2013-02-21 01:51:00,30.9,10.0,0.00,NNE,20,0.0,0.0,41,0.00,,---,0.00,VWS V13.01,2013-02-21 06:51:00,
2013-02-21 01:56:00,30.7,9.8,0.00,NNE,20,0.0,0.0,41,0.00,,---,0.00,VWS V13.01,2013-02-21 06:56:00,
2013-02-21 02:01:00,30.7,9.8,0.00,NNE,20,0.0,0.0,41,0.00,,---,0.00,VWS V13.01,2013-02-21 07:01:00,
2013-02-21 02:06:00,30.7,9.8,0.00,NNE,20,0.0,0.0,41,0.00,,---,0.00,VWS V13.01,2013-02-21 07:06:00,
2013-02-21 02:11:00,30.6,9.7,0.00,NNE,20,0.0,0.0,41,0.00,,---,0.00,VWS V13.01,2013-02-21 07:11:00,
2013-02-21 02:16:00,30.4,9.5,0.00,NNE,20,0.0,0.0,41,0.00,,---,0.00,VWS V13.01,2013-02-21 07:16:00,
2013-02-21 02:21:00,30.2,9.9,0.00,NNE,20,0.0,0.0,42,0.00,,---,0.00,VWS V13.01,2013-02-21 07:21:00,
2013-02-21 02:26:00,30.0,9.7,0.00,NNE,20,0.0,0.0,42,0.00,,---,0.00,VWS V13.01,2013-02-21 07:26:00,
2013-02-21 02:31:00,29.8,9.6,0.00,NNE,20,0.0,0.0,42,0.00,,---,0.00,VWS V13.01,2013-02-21 07:31:00,
2013-02-21 02:36:00,29.7,9.9,0.00,NNE,20,0.0,0.0,43,0.00,,---,0.00,VWS V13.01,2013-02-21 07:36:00,
2013-02-21 02:41:00,29.5,10.3,0.00,NNE,20,0.0,0.0,44,0.00,,---,0.00,VWS V13.01,2013-02-21 07:41:00,
2013-02-21 02:46:00,29.3,10.6,0.00,NNE,20,0.0,0.0,45,0.00,,---,0.00,VWS V13.01,2013-02-21 07:46:00,
2013-02-21 02:51:00,29.1,9.9,0.00,NNE,20,0.0,0.0,44,0.00,,---,0.00,VWS V13.01,2013-02-21 07:51:00,
2013-02-21 02:56:00,28.9,9.8,0.00,NNE,20,0.0,0.0,44,0.00,,---,0.00,VWS V13.01,2013-02-21 07:56:00,
2013-02-21 03:01:00,28.8,9.6,0.00,NNE,20,0.0,0.0,44,0.00,,---,0.00,VWS V13.01,2013-02-21 08:01:00,
2013-02-21 03:07:00,28.6,9.4,0.00,NNE,20,0.0,0.0,44,0.00,,---,0.00,VWS V13.01,2013-02-21 08:07:00,
2013-02-21 03:12:00,28.6,9.9,0.00,NNE,13,0.0,0.0,45,0.00,,---,0.00,VWS V13.01,2013-02-21 08:12:00,
2013-02-21 03:17:00,28.9,10.3,0.00,NNW,335,0.0,0.0,45,0.00,,---,0.00,VWS V13.01,2013-02-21 08:17:00,
2013-02-21 03:22:00,29.5,10.3,0.00,NNW,342,0.0,0.0,44,0.00,,---,0.00,VWS V13.01,2013-02-21 08:22:00,
2013-02-21 03:27:00,29.5,10.8,0.00,NNE,15,0.0,0.0,45,0.00,,---,0.00,VWS V13.01,2013-02-21 08:27:00,
2013-02-21 03:32:00,29.5,10.8,0.00,North,1,0.0,0.0,45,0.00,,---,0.00,VWS V13.01,2013-02-21 08:32:00,
2013-02-21 03:37:00,30.0,10.8,0.00,NW,324,0.0,0.0,44,0.00,,---,0.00,VWS V13.01,2013-02-21 08:37:00,
2013-02-21 03:42:00,30.4,10.1,0.00,NNW,346,0.0,0.0,42,0.00,,---,0.00,VWS V13.01,2013-02-21 08:42:00,
2013-02-21 03:47:00,30.7,9.8,0.00,NNW,346,0.0,0.0,41,0.00,,---,0.00,VWS V13.01,2013-02-21 08:47:00,
2013-02-21 03:52:00,30.9,10.0,0.00,NNW,346,0.0,0.0,41,0.00,,---,0.00,VWS V13.01,2013-02-21 08:52:00,
2013-02-21 03:57:00,31.1,10.2,0.00,North,9,0.0,0.0,41,0.00,,---,0.00,VWS V13.01,2013-02-21 08:57:00,
2013-02-21 04:02:00,31.1,10.2,0.00,North,9,0.0,0.0,41,0.00,,---,0.00,VWS V13.01,2013-02-21 09:02:00,
2013-02-21 04:07:00,30.9,10.0,0.00,North,9,0.0,0.0,41,0.00,,---,0.00,VWS V13.01,2013-02-21 09:07:00,
2013-02-21 04:12:00,30.6,9.7,0.00,North,0,0.0,0.0,41,0.00,,---,0.00,VWS V13.01,2013-02-21 09:12:00,
2013-02-21 04:17:00,30.4,9.5,0.00,North,350,0.0,0.0,41,0.00,,---,0.00,VWS V13.01,2013-02-21 09:17:00,
2013-02-21 04:22:00,30.4,9.5,0.00,North,350,0.0,0.0,41,0.00,,---,0.00,VWS V13.01,2013-02-21 09:22:00,
2013-02-21 04:27:00,30.4,9.5,0.00,North,350,0.0,0.0,41,0.00,,---,0.00,VWS V13.01,2013-02-21 09:27:00,
2013-02-21 04:32:00,30.0,9.7,0.00,North,350,0.0,0.0,42,0.00,,---,0.00,VWS V13.01,2013-02-21 09:32:00,
2013-02-21 04:37:00,29.7,9.9,0.00,North,350,0.0,0.0,43,0.00,,---,0.00,VWS V13.01,2013-02-21 09:37:00,
2013-02-21 04:42:00,29.5,9.8,0.00,North,350,0.0,0.0,43,0.00,,---,0.00,VWS V13.01,2013-02-21 09:42:00,
2013-02-21 04:47:00,29.3,10.1,0.00,North,2,0.0,0.0,44,0.00,,---,0.00,VWS V13.01,2013-02-21 09:47:00,
2013-02-21 04:52:00,29.5,9.8,0.00,North,3,0.0,0.0,43,0.00,,---,0.00,VWS V13.01,2013-02-21 09:52:00,
2013-02-21 04:57:00,29.5,9.2,0.00,North,3,0.0,0.0,42,0.00,,---,0.00,VWS V13.01,2013-02-21 09:57:00,
2013-02-21 05:02:00,29.7,9.4,0.00,North,3,0.0,0.0,42,0.00,,---,0.00,VWS V13.01,2013-02-21 10:02:00,
2013-02-21 05:07:00,30.0,9.7,0.00,North,6,0.0,0.0,42,0.00,,---,0.00,VWS V13.01,2013-02-21 10:07:00,
2013-02-21 05:12:00,30.2,9.4,0.00,NW,325,0.0,0.0,41,0.00,,---,0.00,VWS V13.01,2013-02-21 10:12:00,
2013-02-21 05:17:00,29.7,9.9,0.00,WNW,291,0.0,0.0,43,0.00,,---,0.00,VWS V13.01,2013-02-21 10:17:00,
2013-02-21 05:22:00,28.8,9.6,0.00,WNW,291,0.0,0.0,44,0.00,,---,0.00,VWS V13.01,2013-02-21 10:22:00,
2013-02-21 05:27:00,28.2,9.6,0.00,WNW,291,0.0,0.0,45,0.00,,---,0.00,VWS V13.01,2013-02-21 10:27:00,
2013-02-21 05:32:00,27.9,9.8,0.00,WNW,291,0.0,0.0,46,0.00,,---,0.00,VWS V13.01,2013-02-21 10:32:00,
2013-02-21 05:37:00,27.7,10.1,0.00,WNW,291,0.0,0.0,47,0.00,,---,0.00,VWS V13.01,2013-02-21 10:37:00,
2013-02-21 05:42:00,27.5,10.4,0.00,WNW,291,0.0,0.0,48,0.00,,---,0.00,VWS V13.01,2013-02-21 10:42:00,
2013-02-21 05:47:00,27.3,10.7,0.00,WNW,291,0.0,0.0,49,0.00,,---,0.00,VWS V13.01,2013-02-21 10:47:00,
2013-02-21 05:52:00,27.1,11.0,0.00,WNW,291,0.0,0.0,50,0.00,,---,0.00,VWS V13.01,2013-02-21 10:52:00,
2013-02-21 05:57:00,27.0,11.3,0.00,WNW,291,0.0,0.0,51,0.00,,---,0.00,VWS V13.01,2013-02-21 10:57:00,
2013-02-21 06:02:00,27.0,11.3,0.00,WNW,291,0.0,0.0,51,0.00,,---,0.00,VWS V13.01,2013-02-21 11:02:00,
2013-02-21 06:07:00,26.8,11.5,0.00,WNW,291,0.0,0.0,52,0.00,,---,0.00,VWS V13.01,2013-02-21 11:07:00,
2013-02-21 06:12:00,26.6,11.8,0.00,WNW,291,0.0,0.0,53,0.00,,---,0.00,VWS V13.01,2013-02-21 11:12:00,
2013-02-21 06:17:00,26.4,11.6,0.00,WNW,291,0.0,0.0,53,0.00,,---,0.00,VWS V13.01,2013-02-21 11:17:00,
2013-02-21 06:22:00,26.4,12.0,0.00,WNW,291,0.0,0.0,54,0.00,,---,0.00,VWS V13.01,2013-02-21 11:22:00,
2013-02-21 06:27:00,26.2,11.9,0.00,WNW,291,0.0,0.0,54,0.00,,---,0.00,VWS V13.01,2013-02-21 11:27:00,
2013-02-21 06:32:00,26.1,11.7,0.00,WNW,291,0.0,0.0,54,0.00,,---,0.00,VWS V13.01,2013-02-21 11:32:00,
2013-02-21 06:37:00,25.9,11.5,0.00,WNW,291,0.0,0.0,54,0.00,,---,0.00,VWS V13.01,2013-02-21 11:37:00,
2013-02-21 06:42:00,25.5,11.6,0.00,North,357,0.0,0.0,55,0.00,,---,0.00,VWS V13.01,2013-02-21 11:42:00,
2013-02-21 06:47:00,25.5,12.0,0.00,North,357,0.0,0.0,56,0.00,,---,0.00,VWS V13.01,2013-02-21 11:47:00,
2013-02-21 06:52:00,25.5,12.0,0.00,North,357,0.0,0.0,56,0.00,,---,0.00,VWS V13.01,2013-02-21 11:52:00,
2013-02-21 06:57:00,25.5,12.0,0.00,North,357,0.0,0.0,56,0.00,,---,0.00,VWS V13.01,2013-02-21 11:57:00,
2013-02-21 07:02:00,25.7,12.2,0.00,North,357,0.0,0.0,56,0.00,,---,0.00,VWS V13.01,2013-02-21 12:02:00,
2013-02-21 07:07:00,25.7,12.2,0.00,North,357,0.0,0.0,56,0.00,,---,0.00,VWS V13.01,2013-02-21 12:07:00,
2013-02-21 07:12:00,25.7,12.2,0.00,North,357,0.0,0.0,56,0.00,,---,0.00,VWS V13.01,2013-02-21 12:12:00,
2013-02-21 07:17:00,25.7,12.2,0.00,North,357,0.0,0.0,56,0.00,,---,0.00,VWS V13.01,2013-02-21 12:17:00,
2013-02-21 07:22:00,25.9,12.4,0.00,North,357,0.0,0.0,56,0.00,,---,0.00,VWS V13.01,2013-02-21 12:22:00,
2013-02-21 07:27:00,25.9,12.8,0.00,North,357,0.0,0.0,57,0.00,,---,0.00,VWS V13.01,2013-02-21 12:27:00,
2013-02-21 07:32:00,25.9,12.8,0.00,North,357,0.0,0.0,57,0.00,,---,0.00,VWS V13.01,2013-02-21 12:32:00,
2013-02-21 07:37:00,25.9,12.8,0.00,North,357,0.0,0.0,57,0.00,,---,0.00,VWS V13.01,2013-02-21 12:37:00,
2013-02-21 07:42:00,25.9,13.1,0.00,North,357,0.0,0.0,58,0.00,,---,0.00,VWS V13.01,2013-02-21 12:42:00,
2013-02-21 07:47:00,26.1,13.7,0.00,North,357,0.0,0.0,59,0.00,,---,0.00,VWS V13.01,2013-02-21 12:47:00,
2013-02-21 07:52:00,26.2,14.3,0.00,North,357,0.0,0.0,60,0.00,,---,0.00,VWS V13.01,2013-02-21 12:52:00,
2013-02-21 07:57:00,26.6,14.6,0.00,North,357,0.0,0.0,60,0.00,,---,0.00,VWS V13.01,2013-02-21 12:57:00,
2013-02-21 08:02:00,27.0,15.3,0.00,North,357,0.0,0.0,61,0.00,,---,0.00,VWS V13.01,2013-02-21 13:02:00,
2013-02-21 08:07:00,27.5,15.4,0.00,North,357,0.0,0.0,60,0.00,,---,0.00,VWS V13.01,2013-02-21 13:07:00,
2013-02-21 08:12:00,28.0,16.0,0.00,North,353,0.0,0.0,60,0.00,,---,0.00,VWS V13.01,2013-02-21 13:12:00,
2013-02-21 08:17:00,28.6,16.1,0.00,North,353,0.0,0.0,59,0.00,,---,0.00,VWS V13.01,2013-02-21 13:17:00,
2013-02-21 08:22:00,28.9,16.4,0.00,North,353,0.0,0.0,59,0.00,,---,0.00,VWS V13.01,2013-02-21 13:22:00,
2013-02-21 08:27:00,29.5,17.3,0.00,North,353,0.0,0.0,60,0.00,,---,0.00,VWS V13.01,2013-02-21 13:27:00,
2013-02-21 08:32:00,30.6,17.1,0.00,North,353,0.0,0.0,57,0.00,,---,0.00,VWS V13.01,2013-02-21 13:32:00,
2013-02-21 08:37:00,31.3,16.6,0.00,North,353,0.0,0.0,54,0.00,,---,0.00,VWS V13.01,2013-02-21 13:37:00,
2013-02-21 08:42:00,32.0,17.7,0.00,West,265,0.0,0.0,55,0.00,,---,0.00,VWS V13.01,2013-02-21 13:42:00,
2013-02-21 08:47:00,32.5,17.8,0.00,West,265,0.0,0.0,54,0.00,,---,0.00,VWS V13.01,2013-02-21 13:47:00,
2013-02-21 08:52:00,33.1,17.4,0.00,West,265,0.0,0.0,52,0.00,,---,0.00,VWS V13.01,2013-02-21 13:52:00,
2013-02-21 08:57:00,33.6,16.5,0.00,NNE,13,0.0,3.6,49,0.00,,---,0.00,VWS V13.01,2013-02-21 13:57:00,
2013-02-21 09:02:00,34.9,13.6,0.00,NNW,337,0.0,0.0,41,0.00,,---,0.00,VWS V13.01,2013-02-21 14:02:00,
2013-02-21 09:07:00,35.4,14.6,0.00,NNE,19,0.0,0.0,42,0.00,,---,0.00,VWS V13.01,2013-02-21 14:07:00,
2013-02-21 09:12:00,36.1,13.6,0.00,North,357,0.0,0.0,39,0.00,,---,0.00,VWS V13.01,2013-02-21 14:12:00,
2013-02-21 09:17:00,36.9,13.0,0.00,NW,306,3.6,4.9,37,0.00,,---,0.00,VWS V13.01,2013-02-21 14:17:00,
2013-02-21 09:22:00,37.4,10.9,0.00,NNW,340,5.4,6.3,33,0.00,,---,0.00,VWS V13.01,2013-02-21 14:22:00,
2013-02-21 09:27:00,37.9,11.4,0.00,NNW,327,4.0,6.3,33,0.00,,---,0.00,VWS V13.01,2013-02-21 14:27:00,
2013-02-21 09:32:00,38.5,11.9,0.00,NW,322,3.1,6.3,33,0.00,,---,0.00,VWS V13.01,2013-02-21 14:32:00,
2013-02-21 09:37:00,38.7,11.4,0.00,NW,305,4.0,6.3,32,0.00,,---,0.00,VWS V13.01,2013-02-21 14:37:00,
2013-02-21 09:42:00,38.7,11.4,0.00,NNE,23,3.1,7.6,32,0.00,,---,0.00,VWS V13.01,2013-02-21 14:42:00,
2013-02-21 09:47:00,39.2,11.1,0.00,North,353,0.0,7.6,31,0.00,,---,0.00,VWS V13.01,2013-02-21 14:47:00,
2013-02-21 09:52:00,39.7,12.3,0.00,WSW,252,0.0,7.6,32,0.00,,---,0.00,VWS V13.01,2013-02-21 14:52:00,
2013-02-21 09:57:00,39.9,12.5,0.00,North,357,0.0,7.6,32,0.00,,---,0.00,VWS V13.01,2013-02-21 14:57:00,
2013-02-21 10:02:00,40.3,12.1,0.00,NW,315,3.6,4.0,31,0.00,,---,0.00,VWS V13.01,2013-02-21 15:02:00,
2013-02-21 10:07:00,40.6,12.4,0.00,NW,309,0.0,4.0,31,0.00,,---,0.00,VWS V13.01,2013-02-21 15:07:00,
2013-02-21 10:12:00,41.2,12.1,0.00,West,266,3.1,4.0,30,0.00,,---,0.00,VWS V13.01,2013-02-21 15:12:00,
2013-02-21 10:18:00,41.5,12.4,0.00,WNW,294,3.1,4.0,30,0.00,,---,0.00,VWS V13.01,2013-02-21 15:18:00,
2013-02-21 10:22:00,41.7,12.6,0.00,WNW,296,3.6,5.8,30,0.00,,---,0.00,VWS V13.01,2013-02-21 15:22:00,
2013-02-21 10:27:00,41.9,12.7,0.00,SW,235,0.0,5.8,30,0.00,,---,0.00,VWS V13.01,2013-02-21 15:27:00,
2013-02-21 10:32:00,42.4,13.2,0.00,WNW,303,3.1,5.8,30,0.00,,---,0.00,VWS V13.01,2013-02-21 15:32:00,
2013-02-21 10:38:00,42.8,12.8,0.00,ESE,104,0.0,5.8,29,0.00,,---,0.00,VWS V13.01,2013-02-21 15:38:00,
2013-02-21 10:43:00,43.5,13.4,0.00,NE,42,0.0,3.6,29,0.00,,---,0.00,VWS V13.01,2013-02-21 15:43:00,
2013-02-21 10:48:00,44.1,13.9,0.00,NNW,334,0.0,3.6,29,0.00,,---,0.00,VWS V13.01,2013-02-21 15:48:00,
2013-02-21 10:53:00,44.4,14.2,0.00,North,353,4.9,4.9,29,0.00,,---,0.00,VWS V13.01,2013-02-21 15:53:00,
2013-02-21 10:58:00,44.6,13.5,0.00,NNW,332,0.0,8.1,28,0.00,,---,0.00,VWS V13.01,2013-02-21 15:58:00,
2013-02-21 11:03:00,45.1,14.0,0.00,South,172,0.0,4.0,28,0.00,,---,0.00,VWS V13.01,2013-02-21 16:03:00,
2013-02-21 11:08:00,45.5,14.3,0.00,ESE,108,2.7,4.0,28,0.00,,---,0.00,VWS V13.01,2013-02-21 16:08:00,
2013-02-21 11:13:00,45.5,14.3,0.00,NNE,27,2.7,5.8,28,0.00,,---,0.00,VWS V13.01,2013-02-21 16:13:00,
2013-02-21 11:18:00,45.7,14.5,0.00,North,357,4.9,5.8,28,0.00,,---,0.00,VWS V13.01,2013-02-21 16:18:00,
2013-02-21 11:23:00,45.9,14.6,0.00,NNE,20,2.7,5.4,28,0.00,,---,0.00,VWS V13.01,2013-02-21 16:23:00,
2013-02-21 11:28:00,46.0,14.8,0.00,WSW,254,0.0,5.4,28,0.00,,---,0.00,VWS V13.01,2013-02-21 16:28:00,
2013-02-21 11:33:00,46.8,14.6,0.00,NNW,348,3.6,8.1,27,0.00,,---,0.00,VWS V13.01,2013-02-21 16:33:00,
2013-02-21 11:38:00,46.9,14.7,0.00,North,6,0.0,8.1,27,0.00,,---,0.00,VWS V13.01,2013-02-21 16:38:00,
2013-02-21 11:43:00,47.3,15.0,0.00,North,357,0.0,8.3,27,0.00,,---,0.00,VWS V13.01,2013-02-21 16:43:00,
2013-02-21 11:48:00,47.7,15.3,0.00,NNE,14,2.2,8.3,27,0.00,,---,0.00,VWS V13.01,2013-02-21 16:48:00,
2013-02-21 11:53:00,47.8,15.5,0.00,WSW,239,3.6,8.3,27,0.00,,---,0.00,VWS V13.01,2013-02-21 16:53:00,
2013-02-21 11:58:00,48.4,16.0,0.00,East,79,2.7,8.3,27,0.00,,---,0.00,VWS V13.01,2013-02-21 16:58:00,
2013-02-21 12:03:00,48.4,16.0,0.00,NW,307,3.1,3.6,27,0.00,,---,0.00,VWS V13.01,2013-02-21 17:03:00,
2013-02-21 12:08:00,48.9,15.6,0.00,West,280,2.2,4.9,26,0.00,,---,0.00,VWS V13.01,2013-02-21 17:08:00,
2013-02-21 12:13:00,48.9,15.6,0.00,NNW,338,5.8,5.8,26,0.00,,---,0.00,VWS V13.01,2013-02-21 17:13:00,
2013-02-21 12:18:00,49.3,15.9,0.00,North,4,2.7,7.2,26,0.00,,---,0.00,VWS V13.01,2013-02-21 17:18:00,
2013-02-21 12:23:00,49.3,15.9,0.00,NNE,31,3.1,4.9,26,0.00,,---,0.00,VWS V13.01,2013-02-21 17:23:00,
2013-02-21 12:28:00,49.3,15.9,0.00,NNW,339,4.0,5.8,26,0.00,,---,0.00,VWS V13.01,2013-02-21 17:28:00,
2013-02-21 12:33:00,49.6,16.2,0.00,West,275,2.7,5.8,26,0.00,,---,0.00,VWS V13.01,2013-02-21 17:33:00,
2013-02-21 12:38:00,50.4,16.8,0.00,ENE,72,3.1,5.8,26,0.00,,---,0.00,VWS V13.01,2013-02-21 17:38:00,
2013-02-21 12:43:00,50.5,17.0,0.00,NE,42,2.7,3.6,26,0.00,,---,0.00,VWS V13.01,2013-02-21 17:43:00,
2013-02-21 12:48:00,51.1,17.4,0.00,NW,308,4.0,4.9,26,0.00,,---,0.00,VWS V13.01,2013-02-21 17:48:00,
2013-02-21 12:53:00,51.6,17.9,0.00,SSW,193,5.4,5.8,26,0.00,,---,0.00,VWS V13.01,2013-02-21 17:53:00,
2013-02-21 12:58:00,52.0,18.2,0.00,SSE,167,5.8,8.1,26,0.00,,---,0.00,VWS V13.01,2013-02-21 17:58:00,
2013-02-21 13:03:00,52.3,15.7,0.00,North,9,5.4,5.8,23,0.00,,---,0.00,VWS V13.01,2013-02-21 18:03:00,
2013-02-21 13:08:00,52.0,15.4,0.00,NNE,15,5.8,5.8,23,0.00,,---,0.00,VWS V13.01,2013-02-21 18:08:00,
2013-02-21 13:13:00,51.8,15.2,0.00,NE,43,4.0,7.2,23,0.00,,---,0.00,VWS V13.01,2013-02-21 18:13:00,
2013-02-21 13:18:00,51.4,15.9,0.00,NE,41,2.7,7.6,24,0.00,,---,0.00,VWS V13.01,2013-02-21 18:18:00,
2013-02-21 13:23:00,51.6,16.0,0.00,NE,39,2.7,4.0,24,0.00,,---,0.00,VWS V13.01,2013-02-21 18:23:00,
2013-02-21 13:28:00,51.6,16.0,0.00,NE,36,5.8,5.8,24,0.00,,---,0.00,VWS V13.01,2013-02-21 18:28:00,
2013-02-21 13:33:00,51.8,15.2,0.00,WNW,294,0.0,5.8,23,0.00,,---,0.00,VWS V13.01,2013-02-21 18:33:00,
2013-02-21 13:38:00,52.9,16.1,0.00,North,353,2.7,5.8,23,0.00,,---,0.00,VWS V13.01,2013-02-21 18:38:00,
2013-02-21 13:43:00,52.9,16.1,0.00,NNW,344,4.0,4.0,23,0.00,,---,0.00,VWS V13.01,2013-02-21 18:43:00,
2013-02-21 13:48:00,52.7,16.0,0.00,ESE,115,2.7,5.8,23,0.00,,---,0.00,VWS V13.01,2013-02-21 18:48:00,
2013-02-21 13:53:00,53.4,16.6,0.00,North,349,3.1,5.8,23,0.00,,---,0.00,VWS V13.01,2013-02-21 18:53:00,
2013-02-21 13:58:00,54.3,17.3,0.00,NW,310,0.0,5.8,23,0.00,,---,0.00,VWS V13.01,2013-02-21 18:58:00,
2013-02-21 14:03:00,55.0,17.9,0.00,WNW,303,3.1,3.6,23,0.00,,---,0.00,VWS V13.01,2013-02-21 19:03:00,
2013-02-21 14:08:00,55.4,17.2,0.00,NNE,18,2.7,4.9,22,0.00,,---,0.00,VWS V13.01,2013-02-21 19:08:00,
2013-02-21 14:13:00,55.4,17.2,0.00,NNW,329,2.2,4.9,22,0.00,,---,0.00,VWS V13.01,2013-02-21 19:13:00,
2013-02-21 14:19:00,55.8,17.5,0.00,NNW,335,0.0,4.9,22,0.00,,---,0.00,VWS V13.01,2013-02-21 19:19:00,
2013-02-21 14:24:00,56.3,18.0,0.00,NNW,335,0.0,0.0,22,0.00,,---,0.00,VWS V13.01,2013-02-21 19:24:00,
2013-02-21 14:29:00,56.3,15.8,0.00,NNW,335,0.0,0.0,20,0.00,,---,0.00,VWS V13.01,2013-02-21 19:29:00,
2013-02-21 14:34:00,55.6,15.2,0.00,NNW,335,0.0,0.0,20,0.00,,---,0.00,VWS V13.01,2013-02-21 19:34:00,
2013-02-21 14:39:00,55.4,15.0,0.00,NNW,335,0.0,0.0,20,0.00,,---,0.00,VWS V13.01,2013-02-21 19:39:00,
2013-02-21 14:44:00,55.8,15.3,0.00,NNW,335,0.0,0.0,20,0.00,,---,0.00,VWS V13.01,2013-02-21 19:44:00,
2013-02-21 14:49:00,56.7,18.3,0.00,NNW,335,0.0,0.0,22,0.00,,---,0.00,VWS V13.01,2013-02-21 19:49:00,
2013-02-21 14:54:00,57.0,16.4,0.00,NNW,335,0.0,0.0,20,0.00,,---,0.00,VWS V13.01,2013-02-21 19:54:00,
2013-02-21 14:59:00,57.2,18.7,0.00,NNW,335,0.0,0.0,22,0.00,,---,0.00,VWS V13.01,2013-02-21 19:59:00,
2013-02-21 15:05:00,57.7,19.2,0.00,NNW,335,0.0,0.0,22,0.00,,---,0.00,VWS V13.01,2013-02-21 20:05:00,
2013-02-21 15:10:00,57.7,19.2,0.00,NNW,335,0.0,0.0,22,0.00,,---,0.00,VWS V13.01,2013-02-21 20:10:00,
2013-02-21 15:15:00,57.9,15.9,0.00,NNW,335,0.0,0.0,19,0.00,,---,0.00,VWS V13.01,2013-02-21 20:15:00,
2013-02-21 15:20:00,57.7,15.8,0.00,NNW,335,0.0,0.0,19,0.00,,---,0.00,VWS V13.01,2013-02-21 20:20:00,
2013-02-21 15:25:00,57.2,15.3,0.00,NNW,335,0.0,0.0,19,0.00,,---,0.00,VWS V13.01,2013-02-21 20:25:00,
2013-02-21 15:30:00,57.2,15.3,0.00,NNW,335,0.0,0.0,19,0.00,,---,0.00,VWS V13.01,2013-02-21 20:30:00,
2013-02-21 15:35:00,57.6,15.6,0.00,NNW,335,0.0,0.0,19,0.00,,---,0.00,VWS V13.01,2013-02-21 20:35:00,
2013-02-21 15:40:00,57.0,16.4,0.00,East,84,0.0,0.0,20,0.00,,---,0.00,VWS V13.01,2013-02-21 20:40:00,
2013-02-21 15:45:00,56.3,15.8,0.00,East,84,0.0,0.0,20,0.00,,---,0.00,VWS V13.01,2013-02-21 20:45:00,
2013-02-21 15:50:00,55.9,15.5,0.00,SE,141,3.1,3.1,20,0.00,,---,0.00,VWS V13.01,2013-02-21 20:50:00,
2013-02-21 15:55:00,55.8,15.3,0.00,SE,141,3.1,3.1,20,0.00,,---,0.00,VWS V13.01,2013-02-21 20:55:00,
2013-02-21 16:00:00,55.6,15.2,0.00,NE,53,0.0,3.1,20,0.00,,---,0.00,VWS V13.01,2013-02-21 21:00:00,
2013-02-21 16:05:00,55.4,15.0,0.00,SE,135,0.0,0.0,20,0.00,,---,0.00,VWS V13.01,2013-02-21 21:05:00,
2013-02-21 16:10:00,55.2,14.9,0.00,SSE,152,0.0,0.0,20,0.00,,---,0.00,VWS V13.01,2013-02-21 21:10:00,
2013-02-21 16:15:00,54.9,14.6,0.00,SE,144,0.0,0.0,20,0.00,,---,0.00,VWS V13.01,2013-02-21 21:15:00,
2013-02-21 16:20:00,54.9,14.6,0.00,SSE,150,2.2,3.6,20,0.00,,---,0.00,VWS V13.01,2013-02-21 21:20:00,
2013-02-21 16:25:00,54.7,14.4,0.00,North,3,2.7,3.6,20,0.00,,---,0.00,VWS V13.01,2013-02-21 21:25:00,
2013-02-21 16:30:00,54.5,14.3,0.00,SE,135,2.7,4.9,20,0.00,,---,0.00,VWS V13.01,2013-02-21 21:30:00,
2013-02-21 16:35:00,54.5,14.3,0.00,WSW,242,0.0,4.9,20,0.00,,---,0.00,VWS V13.01,2013-02-21 21:35:00,
2013-02-21 16:40:00,54.5,14.3,0.00,West,281,0.0,0.0,20,0.00,,---,0.00,VWS V13.01,2013-02-21 21:40:00,
2013-02-21 16:45:00,54.3,14.1,0.00,ESE,122,2.7,2.7,20,0.00,,---,0.00,VWS V13.01,2013-02-21 21:45:00,
2013-02-21 16:50:00,54.1,14.0,0.00,ESE,123,0.0,2.7,20,0.00,,---,0.00,VWS V13.01,2013-02-21 21:50:00,
2013-02-21 16:55:00,54.0,13.8,0.00,SW,222,0.0,2.7,20,0.00,,---,0.00,VWS V13.01,2013-02-21 21:55:00,
2013-02-21 17:01:00,53.8,13.7,0.00,WSW,258,0.0,0.0,20,0.00,,---,0.00,VWS V13.01,2013-02-21 22:01:00,
2013-02-21 17:06:00,53.6,13.5,0.00,SW,233,0.0,0.0,20,0.00,,---,0.00,VWS V13.01,2013-02-21 22:06:00,
2013-02-21 17:11:00,53.4,14.5,0.00,West,270,0.0,0.0,21,0.00,,---,0.00,VWS V13.01,2013-02-21 22:11:00,
2013-02-21 17:16:00,53.2,14.3,0.00,West,270,0.0,0.0,21,0.00,,---,0.00,VWS V13.01,2013-02-21 22:16:00,
2013-02-21 17:21:00,52.9,14.0,0.00,West,270,0.0,0.0,21,0.00,,---,0.00,VWS V13.01,2013-02-21 22:21:00,
2013-02-21 17:26:00,52.5,13.7,0.00,West,270,0.0,0.0,21,0.00,,---,0.00,VWS V13.01,2013-02-21 22:26:00,
2013-02-21 17:31:00,52.2,15.5,0.00,West,270,0.0,0.0,23,0.00,,---,0.00,VWS V13.01,2013-02-21 22:31:00,
2013-02-21 17:36:00,51.6,16.0,0.00,West,270,0.0,0.0,24,0.00,,---,0.00,VWS V13.01,2013-02-21 22:36:00,
2013-02-21 17:41:00,51.4,15.9,0.00,West,270,0.0,0.0,24,0.00,,---,0.00,VWS V13.01,2013-02-21 22:41:00,
2013-02-21 17:46:00,50.9,15.4,0.00,West,270,0.0,0.0,24,0.00,,---,0.00,VWS V13.01,2013-02-21 22:46:00,
2013-02-21 17:51:00,50.5,15.1,0.00,West,270,0.0,0.0,24,0.00,,---,0.00,VWS V13.01,2013-02-21 22:51:00,
2013-02-21 17:56:00,50.2,14.8,0.00,West,270,0.0,0.0,24,0.00,,---,0.00,VWS V13.01,2013-02-21 22:56:00,
2013-02-21 18:01:00,49.6,14.3,0.00,West,270,0.0,0.0,24,0.00,,---,0.00,VWS V13.01,2013-02-21 23:01:00,
2013-02-21 18:06:00,49.1,13.9,0.00,West,270,0.0,0.0,24,0.00,,---,0.00,VWS V13.01,2013-02-21 23:06:00,
2013-02-21 18:11:00,48.7,13.6,0.00,West,270,0.0,0.0,24,0.00,,---,0.00,VWS V13.01,2013-02-21 23:11:00,
2013-02-21 18:16:00,48.2,13.1,0.00,West,270,0.0,0.0,24,0.00,,---,0.00,VWS V13.01,2013-02-21 23:16:00,
2013-02-21 18:21:00,47.8,15.5,0.00,West,270,0.0,0.0,27,0.00,,---,0.00,VWS V13.01,2013-02-21 23:21:00,
2013-02-21 18:26:00,47.5,15.2,0.00,NNE,22,0.0,0.0,27,0.00,,---,0.00,VWS V13.01,2013-02-21 23:26:00,
2013-02-21 18:31:00,47.1,14.9,0.00,East,80,0.0,0.0,27,0.00,,---,0.00,VWS V13.01,2013-02-21 23:31:00,
2013-02-21 18:36:00,46.9,15.6,0.00,East,80,0.0,0.0,28,0.00,,---,0.00,VWS V13.01,2013-02-21 23:36:00,
2013-02-21 18:41:00,46.6,15.2,0.00,ENE,58,0.0,0.0,28,0.00,,---,0.00,VWS V13.01,2013-02-21 23:41:00,
2013-02-21 18:46:00,46.6,15.2,0.00,NE,54,0.0,0.0,28,0.00,,---,0.00,VWS V13.01,2013-02-21 23:46:00,
2013-02-21 18:51:00,46.6,15.2,0.00,NE,53,0.0,0.0,28,0.00,,---,0.00,VWS V13.01,2013-02-21 23:51:00,
2013-02-21 18:56:00,46.6,15.2,0.00,NE,54,0.0,0.0,28,0.00,,---,0.00,VWS V13.01,2013-02-21 23:56:00,
2013-02-21 19:01:00,46.4,15.1,0.00,ENE,61,0.0,0.0,28,0.00,,---,0.00,VWS V13.01,2013-02-22 00:01:00,
2013-02-21 19:06:00,46.0,15.6,0.00,ENE,61,0.0,0.0,29,0.00,,---,0.00,VWS V13.01,2013-02-22 00:06:00,
2013-02-21 19:11:00,45.7,15.3,0.00,ENE,61,0.0,0.0,29,0.00,,---,0.00,VWS V13.01,2013-02-22 00:11:00,
2013-02-21 19:16:00,45.5,15.1,0.00,ENE,61,0.0,0.0,29,0.00,,---,0.00,VWS V13.01,2013-02-22 00:16:00,
2013-02-21 19:21:00,45.3,14.9,0.00,ENE,61,0.0,0.0,29,0.00,,---,0.00,VWS V13.01,2013-02-22 00:21:00,
2013-02-21 19:26:00,45.3,14.9,0.00,ENE,61,0.0,0.0,29,0.00,,---,0.00,VWS V13.01,2013-02-22 00:26:00,
2013-02-21 19:31:00,45.1,14.8,0.00,ENE,61,0.0,0.0,29,0.00,,---,0.00,VWS V13.01,2013-02-22 00:31:00,
2013-02-21 19:36:00,44.8,14.5,0.00,ENE,61,0.0,0.0,29,0.00,,---,0.00,VWS V13.01,2013-02-22 00:36:00,
2013-02-21 19:41:00,44.6,15.1,0.00,ENE,61,0.0,0.0,30,0.00,,---,0.00,VWS V13.01,2013-02-22 00:41:00,
2013-02-21 19:47:00,44.2,14.8,0.00,ENE,61,0.0,0.0,30,0.00,,---,0.00,VWS V13.01,2013-02-22 00:47:00,
2013-02-21 19:52:00,44.1,15.4,0.00,ENE,61,0.0,0.0,31,0.00,,---,0.00,VWS V13.01,2013-02-22 00:52:00,
2013-02-21 19:57:00,43.7,15.1,0.00,ENE,61,0.0,0.0,31,0.00,,---,0.00,VWS V13.01,2013-02-22 00:57:00,
2013-02-21 20:02:00,43.7,15.1,0.00,ENE,61,0.0,0.0,31,0.00,,---,0.00,VWS V13.01,2013-02-22 01:02:00,
2013-02-21 20:07:00,43.7,15.8,0.00,ENE,61,0.0,0.0,32,0.00,,---,0.00,VWS V13.01,2013-02-22 01:07:00,
2013-02-21 20:12:00,43.5,16.3,0.00,ENE,61,0.0,0.0,33,0.00,,---,0.00,VWS V13.01,2013-02-22 01:12:00,
2013-02-21 20:17:00,43.3,16.2,0.00,ENE,61,0.0,0.0,33,0.00,,---,0.00,VWS V13.01,2013-02-22 01:17:00,
2013-02-21 20:22:00,43.3,16.9,0.00,ENE,61,0.0,0.0,34,0.00,,---,0.00,VWS V13.01,2013-02-22 01:22:00,
2013-02-21 20:27:00,43.3,16.9,0.00,ENE,61,0.0,0.0,34,0.00,,---,0.00,VWS V13.01,2013-02-22 01:27:00,
2013-02-21 20:32:00,43.3,17.5,0.00,NE,45,0.0,0.0,35,0.00,,---,0.00,VWS V13.01,2013-02-22 01:32:00,
2013-02-21 20:37:00,43.2,17.4,0.00,NE,45,0.0,0.0,35,0.00,,---,0.00,VWS V13.01,2013-02-22 01:37:00,
2013-02-21 20:42:00,43.2,18.7,0.00,NE,46,0.0,0.0,37,0.00,,---,0.00,VWS V13.01,2013-02-22 01:42:00,
2013-02-21 20:47:00,43.2,18.7,0.00,NE,45,0.0,0.0,37,0.00,,---,0.00,VWS V13.01,2013-02-22 01:47:00,
2013-02-21 20:52:00,43.2,19.9,0.00,NE,46,0.0,0.0,39,0.00,,---,0.00,VWS V13.01,2013-02-22 01:52:00,
2013-02-21 20:57:00,42.8,19.0,0.00,NE,42,0.0,3.6,38,0.00,,---,0.00,VWS V13.01,2013-02-22 01:57:00,
2013-02-21 21:02:00,43.0,17.2,0.00,NE,47,0.0,0.0,35,0.00,,---,0.00,VWS V13.01,2013-02-22 02:02:00,
2013-02-21 21:07:00,43.5,17.7,0.00,NE,44,2.2,2.2,35,0.00,,---,0.00,VWS V13.01,2013-02-22 02:07:00,
2013-02-21 21:12:00,43.5,17.0,0.00,NE,36,0.0,2.7,34,0.00,,---,0.00,VWS V13.01,2013-02-22 02:12:00,
2013-02-21 21:17:00,43.7,17.9,0.00,NE,44,0.0,2.7,35,0.00,,---,0.00,VWS V13.01,2013-02-22 02:17:00,
2013-02-21 21:22:00,43.7,17.2,0.00,ENE,75,2.2,3.1,34,0.00,,---,0.00,VWS V13.01,2013-02-22 02:22:00,
2013-02-21 21:27:00,43.7,16.5,0.00,ENE,61,0.0,3.1,33,0.00,,---,0.00,VWS V13.01,2013-02-22 02:27:00,
2013-02-21 21:32:00,43.9,16.7,0.00,SSE,159,0.0,3.1,33,0.00,,---,0.00,VWS V13.01,2013-02-22 02:32:00,
2013-02-21 21:37:00,43.9,16.7,0.00,ENE,78,0.0,3.1,33,0.00,,---,0.00,VWS V13.01,2013-02-22 02:37:00,
2013-02-21 21:42:00,43.9,16.7,0.00,SE,136,0.0,0.0,33,0.00,,---,0.00,VWS V13.01,2013-02-22 02:42:00,
2013-02-21 21:47:00,43.9,16.7,0.00,SE,136,0.0,0.0,33,0.00,,---,0.00,VWS V13.01,2013-02-22 02:47:00,
2013-02-21 21:52:00,43.7,16.5,0.00,SE,136,0.0,0.0,33,0.00,,---,0.00,VWS V13.01,2013-02-22 02:52:00,
2013-02-21 21:57:00,43.5,17.0,0.00,West,280,0.0,0.0,34,0.00,,---,0.00,VWS V13.01,2013-02-22 02:57:00,
2013-02-21 22:02:00,43.3,17.5,0.00,West,280,0.0,0.0,35,0.00,,---,0.00,VWS V13.01,2013-02-22 03:02:00,
2013-02-21 22:07:00,43.0,17.2,0.00,West,280,0.0,0.0,35,0.00,,---,0.00,VWS V13.01,2013-02-22 03:07:00,
2013-02-21 22:12:00,42.8,17.7,0.00,West,280,0.0,0.0,36,0.00,,---,0.00,VWS V13.01,2013-02-22 03:12:00,
2013-02-21 22:17:00,42.4,18.0,0.00,West,280,0.0,0.0,37,0.00,,---,0.00,VWS V13.01,2013-02-22 03:17:00,
2013-02-21 22:22:00,42.3,17.2,0.00,West,280,0.0,0.0,36,0.00,,---,0.00,VWS V13.01,2013-02-22 03:22:00,
2013-02-21 22:27:00,42.1,18.3,0.00,West,280,0.0,0.0,38,0.00,,---,0.00,VWS V13.01,2013-02-22 03:27:00,
2013-02-21 22:32:00,42.1,18.9,0.00,NE,53,0.0,0.0,39,0.00,,---,0.00,VWS V13.01,2013-02-22 03:32:00,
2013-02-21 22:37:00,41.9,18.2,0.00,NE,34,0.0,0.0,38,0.00,,---,0.00,VWS V13.01,2013-02-22 03:37:00,
2013-02-21 22:42:00,41.9,18.2,0.00,NE,51,0.0,0.0,38,0.00,,---,0.00,VWS V13.01,2013-02-22 03:42:00,
2013-02-21 22:47:00,41.9,18.2,0.00,NE,41,2.7,2.7,38,0.00,,---,0.00,VWS V13.01,2013-02-22 03:47:00,
2013-02-21 22:52:00,42.1,16.4,0.00,ENE,59,0.0,3.6,35,0.00,,---,0.00,VWS V13.01,2013-02-22 03:52:00,
2013-02-21 22:57:00,42.3,16.6,0.00,NW,311,0.0,3.6,35,0.00,,---,0.00,VWS V13.01,2013-02-22 03:57:00,
2013-02-21 23:02:00,42.4,16.1,0.00,NE,37,0.0,3.1,34,0.00,,---,0.00,VWS V13.01,2013-02-22 04:02:00,
2013-02-21 23:08:00,42.6,16.2,0.00,NNE,33,0.0,3.1,34,0.00,,---,0.00,VWS V13.01,2013-02-22 04:08:00,
2013-02-21 23:13:00,42.6,16.9,0.00,North,8,0.0,3.1,35,0.00,,---,0.00,VWS V13.01,2013-02-22 04:13:00,
2013-02-21 23:18:00,42.8,16.4,0.00,NNW,330,0.0,3.6,34,0.00,,---,0.00,VWS V13.01,2013-02-22 04:18:00,
2013-02-21 23:23:00,42.8,15.7,0.00,WNW,297,0.0,0.0,33,0.00,,---,0.00,VWS V13.01,2013-02-22 04:23:00,
2013-02-21 23:28:00,43.0,16.5,0.00,WSW,239,0.0,4.0,34,0.00,,---,0.00,VWS V13.01,2013-02-22 04:28:00,
2013-02-21 23:33:00,43.0,15.9,0.00,SE,139,0.0,4.0,33,0.00,,---,0.00,VWS V13.01,2013-02-22 04:33:00,
2013-02-21 23:38:00,43.2,15.3,0.00,East,93,0.0,4.0,32,0.00,,---,0.00,VWS V13.01,2013-02-22 04:38:00,
2013-02-21 23:43:00,43.2,15.3,0.00,NNE,27,0.0,4.0,32,0.00,,---,0.00,VWS V13.01,2013-02-22 04:43:00,
2013-02-21 23:48:00,43.3,15.5,0.00,NNW,339,0.0,4.0,32,0.00,,---,0.00,VWS V13.01,2013-02-22 04:48:00,
2013-02-21 23:53:00,43.3,15.5,0.00,NE,51,0.0,4.0,32,0.00,,---,0.00,VWS V13.01,2013-02-22 04:53:00,
2013-02-21 23:58:00,43.2,14.6,0.00,NE,47,2.7,4.0,31,0.00,,---,0.00,VWS V13.01,2013-02-22 04:58:00,